Погода в Новых Алгашах

Россия / Ульяновская область     54°42′44″N   47°44′45″E
темп.,
°C
ветер,
м/с
пор.,
м/с
влажн.,
%
обл.,
%
осадки,
мм/ч
давл.,
гПа
погр.,
м
29 июня, ср
ср2901:00+12ссв586377 0.0 1019433
04:00+8с34775 0.0 102060
07:00+9с697387 0.0 1021493
10:00+13ссв466386 0.0 10211006
13:00+16с565558 0.0 10201626
16:00+17ссз56527 0.0 10191692
19:00+16ссз47625 0.0 1018648
22:00+12сз44715 0.0 101864
30 июня, чт
чт3001:00+10сз34730 0.0 101758
04:00+9зсз3574100 0.0 101672
07:00+12зсз4107481 0.0 1015268
10:00+17сз5756100 0.0 1013843
13:00+19ссз684836 0.0 10132073
16:00+19ссз684540 0.0 10122109
19:00+16с71066100 0.3 1012585
22:00+11ссз2691100 1.9 1013172
1 июля, пт
пт101:00+8ссз38934 0.0 1014169
04:00+6ссз5119214 0.0 1014292
07:00+8ссз6128551 0.0 1014551
10:00+12с9146899 0.1 10131633
13:00+11ссв61183100 0.5 1014863
16:00+11ссв61288100 2.4 1015772
19:00+13ссв813837 0.3 10151079
22:00+11с615857 0.3 1016440
2 июля, сб
сб201:00+10с514865 0.0 1016306
04:00+8ссз411885 0.0 1016203
07:00+11с511786 0.0 1016304
10:00+17с58576 0.0 1015786
13:00+20с56495 0.0 10151811
16:00+20с5650100 0.0 10142217
19:00+17ссз4870100 0.0 1013243
22:00+15ссз3576100 0.0 1014126
3 июля, вс
вс301:00+12ссз338578 0.0 101437
04:00+14ссз487698 0.0 1014187
07:00+15с47785 0.0 1015229
10:00+20с45615 0.0 1015664
13:00+23с565196 0.0 10161899
16:00+23с4552100 0.0 10161751
19:00+22сз356614 0.0 1017165
22:00+17сз34796 0.0 101843